Location: Newark
(45.9167°N, 5.5000°E)
Time: 22:58:27
(UTC+00:00)

ISS - Pass Details

Date: 22 January 2020
Orbit: 415 x 423 km, 51.6° (Epoch: 25 February)

Event Time Altitude Azimuth Distance (km) Brightness Sun altitude
Rises 17:16:26 0° 205° (SSW) 2,366 0.8 -8.5°
Reaches altitude 10° 17:18:50 10° 189° (S) 1,505 -0.6 -8.9°
Maximum altitude 17:21:28 21° 137° (SE) 1,000 -2.1 -9.3°
Enters shadow 17:23:38 13° 92° (E) 1,362 -1.8 -9.7°
